Location: Matagami
(49.7589°N, 77.6258°W)
Time: 00:37:25
(UTC-04:00)

ISS - Visible Passes

Search period start: 25 September 2020 00:00
Search period end: 05 October 2020 00:00
Orbit: 419 x 420 km, 51.6° (Epoch: 25 September)

Date Brightness Start Highest point End Pass type
(mag) Time Alt. Az. Time Alt. Az. Time Alt. Az.
25 Sep -3.7 19:33:56 10° WSW 19:37:19 80° NNW 19:40:42 10° ENE visible
25 Sep -3.3 21:10:57 10° WNW 21:14:00 58° NNW 21:14:00 58° NNW visible
26 Sep -3.4 20:23:30 10° W 20:26:52 60° N 20:28:21 29° ENE visible
26 Sep -0.9 22:00:24 10° WNW 22:01:19 17° WNW 22:01:19 17° WNW visible
27 Sep -3.4 19:36:01 10° W 19:39:23 62° N 19:42:42 10° ENE visible
27 Sep -3.0 21:12:59 10° WNW 21:15:39 52° WNW 21:15:39 52° WNW visible
28 Sep -3.7 20:25:32 10° WNW 20:28:55 70° N 20:30:00 39° E visible
28 Sep -0.6 22:02:27 10° W 22:02:57 13° W 22:02:57 13° W visible
29 Sep -3.5 19:38:04 10° WNW 19:41:27 63° N 19:44:21 13° E visible
29 Sep -2.4 21:14:58 10° WNW 21:17:18 38° W 21:17:18 38° W visible
30 Sep -3.8 20:27:29 10° WNW 20:30:52 77° SSW 20:31:41 48° SE visible
01 Oct -3.8 19:40:01 10° WNW 19:43:25 84° NNE 19:46:05 15° ESE visible
01 Oct -1.7 21:17:03 10° W 21:19:02 24° WSW 21:19:02 24° WSW visible
02 Oct -2.8 20:29:27 10° W 20:32:39 40° SSW 20:33:29 33° S visible
03 Oct -3.3 19:41:56 10° WNW 19:45:15 57° SSW 19:48:00 14° SE visible
03 Oct -0.9 21:19:50 10° WSW 21:20:58 13° SW 21:20:58 13° SW visible
04 Oct -1.5 20:31:43 10° W 20:34:13 19° SW 20:35:33 16° S visible
